User: anonymous   Login
Location: Toronto
(43.6672°N, 79.4170°W)
Time: 01:14:17
(UTC-04:00)
Language:

ISS - Orbit

View from above orbital plane
View from above orbital plane
View from above satellite
View from above satellite

Ground track
Ground track

The orbit data is extracted from the following two-line orbital elements,

1 25544U 98067A   17088.55336405  .00016717  00000-0  10270-3 0  9024
2 25544  51.6383  75.2474 0007775 351.3697   8.7321 15.54283176  9368
Epoch (UTC): 29 March 2017 13:16:50
Eccentricity: 0.0007775
inclination: 51.6383°
perigee height: 399 km
apogee height: 409 km
right ascension of ascending node: 75.2474°
argument of perigee: 351.3697°
revolutions per day: 15.54283176
mean anomaly at epoch: 8.7321°
orbit number at epoch: 936

The dashed part of the orbit path shows where the satellite is in the earth's shadow,  

DLR